TimeCST,TemperatureF,Dew PointF,Humidity,Sea Level PressureIn,VisibilityMPH,Wind Direction,Wind SpeedMPH,Gust SpeedMPH,PrecipitationIn,Events,Conditions,WindDirDegrees,DateUTC
12:16 AM,27.0,22.3,83,29.65,10.0,SW,21.9,31.1,N/A,,Clear,230,2013-02-05 06:16:00
12:36 AM,27.1,22.5,83,29.64,10.0,SW,20.7,27.6,N/A,,Clear,230,2013-02-05 06:36:00
12:55 AM,28.2,23.4,82,29.64,10.0,WSW,20.7,29.9,N/A,,Clear,240,2013-02-05 06:55:00
1:16 AM,28.2,23.4,82,29.65,10.0,WSW,20.7,33.4,N/A,,Scattered Clouds,240,2013-02-05 07:16:00
1:36 AM,28.8,23.9,82,29.65,10.0,WSW,19.6,31.1,N/A,,Scattered Clouds,250,2013-02-05 07:36:00
1:56 AM,28.6,23.9,83,29.66,10.0,WSW,19.6,26.5,N/A,,Mostly Cloudy,240,2013-02-05 07:56:00
2:16 AM,30.2,25.0,81,29.66,10.0,WSW,19.6,31.1,N/A,,Overcast,250,2013-02-05 08:16:00
2:36 AM,30.7,25.5,81,29.65,10.0,WSW,17.3,24.2,N/A,,Overcast,250,2013-02-05 08:36:00
2:56 AM,30.9,25.5,80,29.65,10.0,WSW,11.5,-,N/A,,Overcast,250,2013-02-05 08:56:00
3:15 AM,30.9,25.5,80,29.65,10.0,WSW,13.8,20.7,N/A,,Overcast,250,2013-02-05 09:15:00
3:36 AM,29.7,24.8,82,29.66,10.0,WSW,13.8,-,N/A,,Overcast,250,2013-02-05 09:36:00
3:56 AM,29.7,25.2,83,29.66,10.0,West,13.8,-,N/A,,Overcast,260,2013-02-05 09:56:00
4:16 AM,30.7,26.2,83,29.66,10.0,West,13.8,-,N/A,,Overcast,260,2013-02-05 10:16:00
4:35 AM,30.9,27.1,86,29.68,10.0,West,13.8,-,N/A,,Overcast,280,2013-02-05 10:35:00
4:56 AM,32.2,29.3,89,29.68,10.0,West,15.0,-,N/A,,Overcast,280,2013-02-05 10:56:00
5:16 AM,33.3,30.7,90,29.69,10.0,WNW,15.0,-,N/A,,Overcast,290,2013-02-05 11:16:00
5:35 AM,32.9,29.8,88,29.69,10.0,WNW,11.5,-,N/A,,Mostly Cloudy,290,2013-02-05 11:35:00
6:16 AM,34.2,29.8,84,29.70,10.0,WNW,13.8,-,N/A,,Overcast,300,2013-02-05 12:16:00
6:35 AM,34.0,29.7,84,29.72,10.0,WNW,12.7,-,N/A,,Overcast,300,2013-02-05 12:35:00
6:56 AM,33.8,30.2,87,29.73,10.0,NW,12.7,-,N/A,,Overcast,310,2013-02-05 12:56:00
7:16 AM,33.3,29.7,87,29.74,10.0,NW,13.8,-,N/A,,Mostly Cloudy,310,2013-02-05 13:16:00
7:35 AM,33.1,29.3,86,29.75,10.0,WNW,15.0,-,N/A,,Overcast,300,2013-02-05 13:35:00
7:56 AM,33.1,29.3,86,29.76,10.0,WNW,15.0,-,N/A,,Overcast,300,2013-02-05 13:56:00
8:16 AM,32.9,29.3,87,29.79,10.0,NW,15.0,24.2,N/A,,Overcast,310,2013-02-05 14:16:00
8:35 AM,33.3,30.0,88,29.80,10.0,NW,13.8,-,N/A,,Overcast,310,2013-02-05 14:35:00
8:56 AM,33.4,29.8,87,29.82,10.0,NW,11.5,-,N/A,,Overcast,310,2013-02-05 14:56:00
9:16 AM,33.1,30.0,89,29.83,10.0,North,6.9,-,N/A,,Overcast,350,2013-02-05 15:16:00
9:36 AM,32.0,29.8,92,29.85,7.0,NNW,10.4,18.4,N/A,,Overcast,330,2013-02-05 15:36:00
9:55 AM,30.6,28.0,90,29.87,7.0,North,18.4,25.3,N/A,,Overcast,350,2013-02-05 15:55:00
10:16 AM,24.3,22.1,91,29.89,4.0,NNW,17.3,21.9,N/A,,Overcast,340,2013-02-05 16:16:00
10:36 AM,22.6,20.8,93,29.91,5.0,NNW,15.0,18.4,N/A,,Overcast,330,2013-02-05 16:36:00
10:56 AM,22.3,20.3,92,29.93,5.0,NNW,15.0,20.7,N/A,,Overcast,330,2013-02-05 16:56:00
11:16 AM,20.7,18.3,91,29.95,5.0,NNW,12.7,-,N/A,,Overcast,330,2013-02-05 17:16:00
11:35 AM,20.1,18.5,93,29.96,3.0,NNW,11.5,-,N/A,,Overcast,340,2013-02-05 17:35:00
11:56 AM,20.1,19.0,96,29.96,2.0,NW,13.8,-,N/A,,Overcast,310,2013-02-05 17:56:00
12:16 PM,19.9,18.3,93,29.97,7.0,NW,13.8,-,N/A,,Overcast,320,2013-02-05 18:16:00
12:36 PM,19.9,17.6,91,29.98,7.0,NW,16.1,20.7,N/A,,Overcast,320,2013-02-05 18:36:00
12:56 PM,20.1,16.9,87,29.98,10.0,NW,12.7,18.4,N/A,,Overcast,320,2013-02-05 18:56:00
1:16 PM,20.7,17.4,87,29.99,10.0,NNW,12.7,-,N/A,,Overcast,330,2013-02-05 19:16:00
1:36 PM,20.5,16.7,85,29.99,10.0,NW,10.4,-,N/A,,Overcast,310,2013-02-05 19:36:00
1:55 PM,19.9,15.8,84,29.99,10.0,NW,11.5,-,N/A,,Overcast,320,2013-02-05 19:55:00
2:16 PM,19.9,15.4,83,29.99,10.0,NNW,9.2,-,N/A,,Overcast,330,2013-02-05 20:16:00
2:36 PM,20.3,15.8,83,30.00,10.0,NW,10.4,-,N/A,,Overcast,320,2013-02-05 20:36:00
2:55 PM,20.3,16.2,84,30.00,10.0,NW,9.2,-,N/A,,Overcast,320,2013-02-05 20:55:00
3:15 PM,20.1,15.4,82,30.01,10.0,NW,8.1,-,N/A,,Overcast,320,2013-02-05 21:15:00
3:36 PM,19.9,15.1,81,30.01,10.0,NNW,9.2,-,N/A,,Overcast,330,2013-02-05 21:36:00
3:55 PM,19.4,14.9,83,30.02,10.0,NNW,6.9,-,N/A,,Overcast,330,2013-02-05 21:55:00
4:15 PM,19.4,14.9,83,30.03,10.0,NNW,6.9,-,N/A,,Overcast,330,2013-02-05 22:15:00
4:36 PM,19.4,15.1,83,30.03,10.0,North,5.8,-,N/A,,Overcast,350,2013-02-05 22:36:00
4:56 PM,19.0,14.9,84,30.03,10.0,NNW,5.8,-,N/A,,Overcast,330,2013-02-05 22:56:00
5:16 PM,19.0,14.2,81,30.03,10.0,NNW,6.9,-,N/A,,Overcast,340,2013-02-05 23:16:00
5:36 PM,18.9,13.8,81,30.03,10.0,NNW,4.6,-,N/A,,Overcast,330,2013-02-05 23:36:00
5:55 PM,18.9,13.8,81,30.03,10.0,NNW,3.5,-,N/A,,Overcast,340,2013-02-05 23:55:00
6:16 PM,18.9,13.5,79,30.03,10.0,Calm,Calm,-,N/A,,Overcast,0,2013-02-06 00:16:00
6:36 PM,18.5,13.5,81,30.04,10.0,Calm,Calm,-,N/A,,Overcast,0,2013-02-06 00:36:00
6:55 PM,18.5,13.8,82,30.04,10.0,North,4.6,-,N/A,,Overcast,350,2013-02-06 00:55:00
7:16 PM,18.3,13.8,83,30.04,10.0,North,3.5,-,N/A,,Overcast,10,2013-02-06 01:16:00
7:36 PM,18.5,13.6,81,30.04,10.0,Calm,Calm,-,N/A,,Overcast,0,2013-02-06 01:36:00
7:56 PM,18.3,13.6,82,30.04,10.0,Calm,Calm,-,N/A,,Overcast,0,2013-02-06 01:56:00
8:15 PM,18.1,13.3,81,30.04,10.0,NNE,4.6,-,N/A,,Overcast,30,2013-02-06 02:15:00
8:36 PM,16.9,12.9,84,30.04,10.0,ENE,5.8,-,N/A,,Mostly Cloudy,60,2013-02-06 02:36:00
9:16 PM,14.5,11.1,86,30.04,10.0,Calm,Calm,-,N/A,,Scattered Clouds,0,2013-02-06 03:16:00
9:36 PM,14.0,10.9,88,30.06,10.0,SE,3.5,-,N/A,,Scattered Clouds,140,2013-02-06 03:36:00
9:56 PM,14.0,10.9,88,30.06,10.0,SE,3.5,-,N/A,,Clear,140,2013-02-06 03:56:00
10:16 PM,14.4,11.3,88,30.06,10.0,Calm,Calm,-,N/A,,Clear,0,2013-02-06 04:16:00
10:36 PM,14.2,11.1,88,30.06,10.0,Calm,Calm,-,N/A,,Clear,0,2013-02-06 04:36:00
10:55 PM,12.2,9.5,89,30.06,10.0,Calm,Calm,-,N/A,,Clear,0,2013-02-06 04:55:00
11:16 PM,11.8,9.5,90,30.05,10.0,Calm,Calm,-,N/A,,Clear,0,2013-02-06 05:16:00
11:35 PM,10.4,8.6,92,30.05,10.0,East,4.6,-,N/A,,Clear,80,2013-02-06 05:35:00
11:56 PM,10.4,8.6,92,30.05,10.0,ESE,3.5,-,N/A,,Clear,110,2013-02-06 05:56:00